Powrót do katalogu

STARLINK-31874

AktywnyŁącznośćVLEO
NORAD 60603·PAYLOAD·🇺🇸 United States

Wystrzelony Aug 20, 2024 z Cape Canaveral Space Force Station

Loading…

Następne Przeloty (najbliższe 24 godziny)

TLE

ŚwieżeSource: CelesTrak SupGP

Epoka: Sep 15, 2026, 03:33 UTC

1 60603C 24150W   26258.14840278  .00057740  00000+0  17057-2 0  2586
2 60603  53.1570 142.8934 0001300  78.2800  22.6120 15.34365494    16

Śledź STARLINK-31874 w czasie rzeczywistym z AllMySat

Download on the App Store